TimeMDT,TemperatureF,Dew PointF,Humidity,Sea Level PressureIn,VisibilityMPH,Wind Direction,Wind SpeedMPH,Gust SpeedMPH,PrecipitationIn,Events,Conditions,WindDirDegrees,DateUTC
12:00 AM,28,26,89,29.88,4,WNW,11.5,,,Snow,Light Snow,290,2012-10-19 06:00:00
12:00 AM,28.4,26.6,93,29.88,4.0,WNW,12.7,-,N/A,Snow,Light Snow,290,2012-10-19 06:00:00
1:00 AM,28.4,26.6,93,29.88,5.0,WNW,9.2,-,N/A,Snow,Light Snow,290,2012-10-19 07:00:00
2:00 AM,28.4,26.6,93,29.89,4.0,WNW,9.2,-,N/A,Snow,Light Snow,290,2012-10-19 08:00:00
3:00 AM,28.4,26.6,93,29.90,5.0,WNW,9.2,-,N/A,Snow,Light Snow,290,2012-10-19 09:00:00
4:00 AM,28.4,26.6,93,29.91,6.0,West,12.7,-,N/A,Snow,Light Snow,280,2012-10-19 10:00:00
5:00 AM,26.6,24.8,93,29.94,4.0,West,18.4,-,N/A,Snow,Light Snow,280,2012-10-19 11:00:00
6:00 AM,25,22,85,29.97,4,WNW,18.4,,,Snow,Light Snow,290,2012-10-19 12:00:00
6:00 AM,24.8,23.0,93,29.97,4.0,WNW,18.4,-,N/A,Snow,Light Snow,290,2012-10-19 12:00:00
7:00 AM,23.0,19.4,86,29.99,4.0,West,19.6,27.6,N/A,Snow,Light Snow,280,2012-10-19 13:00:00
8:00 AM,21.2,19.4,93,30.01,4.0,West,18.4,24.2,N/A,Snow,Light Snow,280,2012-10-19 14:00:00
9:00 AM,23.0,19.4,86,30.03,8.0,WNW,16.1,31.1,N/A,Snow,Light Snow,290,2012-10-19 15:00:00
10:00 AM,21.2,17.6,86,30.05,4.0,WNW,18.4,26.5,N/A,Snow,Light Snow,290,2012-10-19 16:00:00
10:31 AM,21.2,17.6,86,30.06,2.0,WNW,18.4,26.5,N/A,Snow,Light Snow,290,2012-10-19 16:31:00
10:43 AM,21.2,17.6,86,30.06,1.0,WNW,17.3,26.5,N/A,Snow,Light Snow,290,2012-10-19 16:43:00
11:00 AM,21.2,17.6,86,30.07,1.0,WNW,17.3,25.3,N/A,Snow,Light Snow,290,2012-10-19 17:00:00
12:00 PM,22,18,78,30.09,2,WNW,19.6,,,Snow,Light Snow,290,2012-10-19 18:00:00
12:00 PM,21.2,17.6,86,30.09,2.0,WNW,18.4,25.3,N/A,Snow,Light Snow,290,2012-10-19 18:00:00
12:07 PM,21.2,17.6,86,30.09,6.0,West,20.7,29.9,N/A,Snow,Light Snow,280,2012-10-19 18:07:00
1:00 PM,21.2,17.6,86,30.10,15.0,WNW,18.4,25.3,N/A,Snow,Light Snow,290,2012-10-19 19:00:00
2:00 PM,23.0,17.6,80,30.11,8.0,WNW,15.0,-,N/A,Snow,Light Snow,290,2012-10-19 20:00:00
4:00 PM,23.0,19.4,86,30.12,10.0,WNW,11.5,19.6,N/A,Snow,Light Snow,290,2012-10-19 22:00:00
6:00 PM,23,19,77,30.12,19,WNW,10.4,,,Snow,Light Snow,290,2012-10-20 00:00:00
6:00 PM,23.0,19.4,86,30.12,20.0,WNW,10.4,-,N/A,Snow,Light Snow,290,2012-10-20 00:00:00
7:00 PM,23.0,19.4,86,30.13,15.0,WNW,9.2,-,N/A,Snow,Light Snow,290,2012-10-20 01:00:00
8:00 PM,23.0,19.4,86,30.13,8.0,WNW,11.5,-,N/A,Snow,Light Snow,290,2012-10-20 02:00:00
9:00 PM,23.0,21.2,93,30.14,8.0,WNW,10.4,-,N/A,Snow,Light Snow,290,2012-10-20 03:00:00
10:00 PM,23.0,21.2,93,30.14,8.0,WNW,9.2,-,N/A,Snow,Light Snow,300,2012-10-20 04:00:00
11:00 PM,24.8,21.2,86,30.15,8.0,West,11.5,-,N/A,Snow,Light Snow,280,2012-10-20 05:00:00